[[{"header":{"parameterUnit":"m.s-1","parameterCategory":1,"la1":30.2991,"la2":30.254,"lo1":-89.0895,"lo2":-89.0444,"dy":0.0017,"dx":0.0017,"nx":28,"ny":28,"refTime":"2025-08-28T03:00:00:Z","depth":0,"parameterNumber":2,"parameterNumberName":"U-component_of_WINDS"},"data":[0,0,0,0,0,0,0,0,0,0,0,0,0,0,0,0,0,0,0,0,0,0,0,0,0,0,0,0,0,0,0,0,0,0,0,0,0,0,0,0,0,0,0,0,0,0,0,0,0,0,0,0,0,0,0,0,0,0,0.0804,0.0803,0,0.0752,0.0752,0.0751,0.0721,0.0721,0.0721,0.0721,0.0667,0.0666,0.0665,0,0,0,0,0,0,0,0,0,0,0,0,0,0.0875,0.0874,0.0804,0.0803,0.0803,0.0752,0.0752,0.0751,0.0721,0.0721,0.0721,0.0721,0.0668,0.0666,0.0664,0,0,0,0,0,0,0,0,0,0,0,0,0,0.0836,0.0874,0.0804,0.0782,0.0779,0.0752,0.0752,0.0751,0.0721,0.0721,0.0721,0.0721,0.0668,0.0666,0.0664,0.0655,0,0,0.0658,0.0657,0,0,0,0,0,0,0,0,0.0838,0.0833,0.0786,0.0783,0.0781,0.0743,0.0757,0.0719,0.0721,0.0743,0.0721,0.0721,0.0693,0.0689,0.0679,0.0653,0.065,0.0658,0.0657,0.0656,0.0655,0,0,0,0,0,0,0,0.0841,0.0836,0.0783,0.0785,0.0782,0.0774,0.0768,0.075,0.0719,0.0741,0.0739,0.0734,0.0691,0.0681,0.0678,0.0649,0.0658,0.0656,0.0655,0.0654,0.0611,0.0611,0,0,0,0,0,0,0.0848,0.0838,0.0785,0.0782,0.081,0.0773,0.0766,0.0755,0.072,0.0714,0.0734,0.0732,0.0685,0.068,0.0676,0.0661,0.0656,0.0654,0.0653,0.0611,0.0611,0.0611,0,0,0,0,0,0,0.0849,0.0843,0.0787,0.0809,0.0802,0.0772,0.076,0.0754,0.0744,0.0714,0.0708,0.0729,0.0684,0.0678,0.066,0.0659,0.0653,0.0651,0.0611,0.0611,0.0611,0.0633,0,0,0,0,0,0,0.0851,0.0844,0.0841,0.0809,0.0801,0.0773,0.076,0.0753,0.0741,0.0739,0.0708,0.0703,0.0684,0.0663,0.0658,0.0656,0.065,0.061,0.0611,0.0611,0.0632,0.0634,0.0635,0,0,0,0,0,0.0854,0.0849,0.0841,0.0834,0.0796,0.0773,0.0768,0.0746,0.0741,0.0737,0.0717,0.0704,0.066,0.0662,0.0656,0.0653,0.061,0.0611,0.0611,0.0632,0.0634,0.0635,0,0,0,0,0,0,0.0881,0.0845,0.0835,0.082,0.08,0.0768,0.0763,0.075,0.073,0.0729,0.0703,0.0696,0.068,0.0664,0.0667,0.0641,0.0634,0.0633,0.0652,0.0653,0.0655,0.0659,0.0648,0,0,0,0,0,0.0886,0.0871,0.0839,0.0829,0.082,0.0793,0.0782,0.0767,0.0745,0.0737,0.0715,0.0694,0.0675,0.0664,0.0645,0.063,0.0622,0.0625,0.0627,0.0628,0.0627,0.0617,0.0617,0.0611,0.0611,0.0611,0,0,0.0894,0.0873,0.0865,0.0834,0.0817,0.0801,0.0786,0.077,0.0758,0.0734,0.0715,0.0699,0.0673,0.0656,0.0648,0.0643,0.0627,0.0628,0.063,0.0628,0.0617,0.0618,0.0618,0.0611,0.0611,0.0611,0,0,0.0902,0.0885,0.0873,0.0856,0.083,0.0812,0.0809,0.0779,0.0767,0.0748,0.0729,0.0714,0.0682,0.0664,0.0651,0.065,0.0637,0.0645,0.0653,0.0643,0.0643,0.0644,0.0642,0.0642,0.0644,0.0645,0.0645,0,0.0916,0.0892,0.0869,0.0854,0.0841,0.0818,0.0806,0.079,0.0759,0.075,0.0745,0.0704,0.0686,0.0663,0.0663,0.0654,0.0649,0.0648,0.0645,0.0645,0.0645,0.0644,0.0643,0.0646,0.0645,0.0645,0.0645,0,0.091,0.0893,0.0887,0.0858,0.0843,0.083,0.0805,0.0793,0.0779,0.0761,0.0741,0.0717,0.0693,0.0686,0.0673,0.0662,0.0659,0.065,0.0642,0.0647,0.0645,0.0645,0.0647,0.0647,0.0646,0.0646,0,0,0.0933,0.0891,0.0889,0.0874,0.0843,0.083,0.0815,0.079,0.078,0.0759,0.0745,0.0719,0.071,0.0695,0.0679,0.067,0.0669,0.0662,0.0661,0.0663,0.0654,0.0661,0.066,0.066,0.066,0.066,0.0656,0,0.0936,0.0908,0.0886,0.0867,0.085,0.0828,0.0814,0.0793,0.0776,0.0759,0.074,0.0721,0.0711,0.0702,0.0692,0.0672,0.0667,0.0672,0.0646,0.0645,0.0653,0.066,0.0667,0.0664,0.0655,0.0655,0.0655,0,0.0935,0.0914,0.0893,0.0862,0.0854,0.0843,0.0818,0.0803,0.0778,0.0766,0.0748,0.0731,0.0713,0.0707,0.0681,0.0685,0.0673,0.0661,0.066,0.0657,0.065,0.0655,0.0663,0.0663,0.0654,0.0654,0.0654,0,0.0953,0.092,0.0902,0.0891,0.0855,0.0847,0.0831,0.0806,0.0793,0.0771,0.0762,0.0738,0.0725,0.0707,0.0684,0.0682,0.066,0.0652,0.0649,0.0649,0.0645,0.0646,0.065,0.0639,0.0639,0.0639,0.0639,0,0.0957,0.0944,0.091,0.0899,0.0883,0.0859,0.0844,0.0826,0.0804,0.0789,0.0768,0.0754,0.0725,0.0707,0.0688,0.0669,0.0664,0.0653,0.0648,0.0654,0.0655,0.0646,0.0645,0.0639,0.0639,0.0639,0.0639,0,0.0974,0.0951,0.093,0.0897,0.0889,0.0879,0.085,0.0838,0.082,0.0801,0.0795,0.0765,0.0743,0.0718,0.0688,0.0675,0.0657,0.065,0.0665,0.0662,0.066,0.066,0.0658,0.0656,0.0647,0.0647,0.0647,0,0.0978,0.0968,0.0934,0.0922,0.0907,0.0889,0.0875,0.0849,0.0835,0.0806,0.0797,0.0773,0.0753,0.0718,0.0693,0.067,0.0662,0.0663,0.0658,0.0664,0.0661,0.0661,0.066,0.0664,0.0664,0.0664,0.0665,0,0.0987,0.0976,0.0956,0.0933,0.0916,0.0896,0.0876,0.0867,0.0837,0.0822,0.0799,0.0784,0.0752,0.0728,0.0701,0.0684,0.0669,0.0666,0.0664,0.067,0.0679,0.0673,0.0668,0.0666,0.0666,0.0666,0.0666,0.0666,0.0997,0.0986,0.0961,0.0939,0.0921,0.0902,0.0889,0.0868,0.0849,0.0821,0.0807,0.0784,0.0758,0.072,0.0704,0.0684,0.068,0.0677,0.0676,0.0675,0.0677,0.0682,0.068,0.0679,0.0679,0.0679,0.0679,0,0.1004,0.0986,0.0967,0.0938,0.0921,0.0909,0.0885,0.0871,0.0851,0.0828,0.0809,0.0781,0.0758,0.0731,0.0706,0.0696,0.0688,0.069,0.069,0.0686,0.0683,0.0687,0.0696,0.0696,0.0696,0.0696,0.0696,0.0696,0.1006,0.0987,0.0972,0.0943,0.0925,0.0902,0.089,0.0871,0.0853,0.0824,0.0804,0.0787,0.0762,0.0735,0.0712,0.0705,0.0696,0.07,0.069,0.0688,0.0686,0.0685,0.0689,0.0698,0.0698,0.0695,0.0695,0.0695]},{"header":{"parameterUnit":"m.s-1","parameterCategory":1,"la1":30.2991,"la2":30.254,"lo1":-89.0895,"lo2":-89.0444,"dy":0.0017,"dx":0.0017,"nx":28,"ny":28,"refTime":"2025-08-28T03:00:00:Z","depth":0,"parameterNumber":3,"parameterNumberName":"V-component_of_WINDS"},"data":[0,0,0,0,0,0,0,0,0,0,0,0,0,0,0,0,0,0,0,0,0,0,0,0,0,0,0,0,0,0,0,0,0,0,0,0,0,0,0,0,0,0,0,0,0,0,0,0,0,0,0,0,0,0,0,0,0,0,3.1757,3.1756,0,3.1603,3.1602,3.16,3.1457,3.1455,3.1453,3.1452,3.1287,3.1284,3.1282,0,0,0,0,0,0,0,0,0,0,0,0,0,3.1921,3.1919,3.1757,3.1755,3.1754,3.1604,3.1601,3.1599,3.1457,3.1455,3.1453,3.1451,3.1288,3.1285,3.1281,0,0,0,0,0,0,0,0,0,0,0,0,0,3.1817,3.1918,3.1758,3.1665,3.1655,3.1604,3.1601,3.1599,3.1457,3.1455,3.1452,3.145,3.1289,3.1285,3.1281,3.1308,0,0,3.1268,3.1267,0,0,0,0,0,0,0,0,3.1823,3.1811,3.168,3.1671,3.166,3.1547,3.1599,3.1501,3.1458,3.1532,3.1451,3.1448,3.1375,3.1364,3.134,3.13,3.1293,3.1268,3.1266,3.1264,3.1263,0,0,0,0,0,0,0,3.183,3.1817,3.1696,3.1678,3.1666,3.1628,3.161,3.1579,3.147,3.1525,3.1515,3.1499,3.1369,3.1345,3.1335,3.1291,3.1268,3.1264,3.1262,3.126,3.1261,3.1263,0,0,0,0,0,0,3.1853,3.1824,3.1701,3.1692,3.1737,3.1627,3.1607,3.1585,3.147,3.145,3.1501,3.1493,3.1353,3.134,3.1329,3.135,3.1264,3.126,3.1258,3.1258,3.1261,3.1264,0,0,0,0,0,0,3.1857,3.1843,3.1707,3.1755,3.1734,3.1627,3.1604,3.1584,3.1559,3.1452,3.1431,3.1497,3.1351,3.1335,3.1314,3.1343,3.1258,3.1254,3.1256,3.1259,3.1263,3.1395,0,0,0,0,0,0,3.1862,3.1845,3.1856,3.1756,3.1733,3.1697,3.1606,3.1583,3.1553,3.1541,3.1442,3.1423,3.1347,3.1321,3.131,3.1335,3.1251,3.1252,3.1257,3.1262,3.1387,3.1403,3.1416,0,0,0,0,0,3.1868,3.1899,3.1858,3.1844,3.1744,3.1699,3.1686,3.1599,3.1557,3.1565,3.1496,3.1426,3.1342,3.132,3.1306,3.1331,3.125,3.1256,3.1261,3.1381,3.14,3.1415,0,0,0,0,0,0,3.2003,3.1884,3.1837,3.1837,3.178,3.1675,3.1684,3.1622,3.1575,3.1564,3.1458,3.1436,3.1427,3.1377,3.1354,3.1349,3.1286,3.129,3.1382,3.1399,3.1413,3.1424,3.1248,0,0,0,0,0,3.2034,3.201,3.1906,3.1915,3.1889,3.1792,3.1769,3.1708,3.1643,3.1618,3.1546,3.1485,3.1443,3.1419,3.1375,3.138,3.1354,3.139,3.1405,3.1417,3.142,3.1415,3.1429,3.1283,3.1282,3.1282,0,0,3.2095,3.2027,3.2017,3.194,3.1889,3.1863,3.1772,3.175,3.1729,3.1613,3.1589,3.1535,3.1458,3.145,3.1442,3.1408,3.1455,3.1424,3.1434,3.143,3.1422,3.1436,3.1449,3.1286,3.1286,3.1285,0,0,3.2193,3.2141,3.2141,3.2092,3.2015,3.195,3.1951,3.1856,3.1816,3.1791,3.1703,3.1675,3.1608,3.1556,3.1521,3.1599,3.1532,3.1588,3.1661,3.1658,3.1669,3.1679,3.1703,3.1714,3.1592,3.1592,3.1592,0,3.2278,3.2238,3.2149,3.2131,3.2098,3.1995,3.1993,3.1949,3.1862,3.184,3.1804,3.1716,3.1657,3.1634,3.1653,3.1629,3.1623,3.1597,3.1675,3.1684,3.1691,3.1713,3.1723,3.1599,3.1598,3.1598,3.1597,0,3.2345,3.2318,3.2328,3.2248,3.2216,3.2207,3.2114,3.2092,3.2034,3.1972,3.1946,3.1872,3.1811,3.1801,3.1743,3.1768,3.1749,3.1696,3.1629,3.1714,3.1733,3.1741,3.1609,3.1607,3.1605,3.1603,0,0,3.2522,3.2393,3.2398,3.2359,3.2267,3.2244,3.2229,3.2171,3.2153,3.2096,3.2078,3.2024,3.1973,3.1934,3.1869,3.1867,3.1929,3.1812,3.1809,3.1834,3.1948,3.1987,3.1999,3.1886,3.1887,3.1888,3.1954,0,3.2602,3.2571,3.249,3.2482,3.2455,3.2356,3.2342,3.2283,3.2225,3.2191,3.2125,3.2087,3.2025,3.2,3.1994,3.1923,3.195,3.1918,3.1864,3.1863,3.1884,3.2009,3.205,3.2116,3.1961,3.1962,3.1963,0,3.2691,3.2642,3.2633,3.2541,3.2526,3.2516,3.2454,3.2425,3.2354,3.2312,3.2268,3.2197,3.2172,3.2113,3.2076,3.2055,3.2029,3.1991,3.1991,3.198,3.1917,3.1999,3.2135,3.2144,3.1974,3.1973,3.1973,0,3.2818,3.275,3.2734,3.2705,3.2598,3.2592,3.2547,3.2474,3.2444,3.239,3.2368,3.2312,3.2281,3.2237,3.2151,3.2117,3.2122,3.2057,3.2083,3.2085,3.2086,3.2087,3.2217,3.2074,3.2074,3.2074,3.2074,0,3.2914,3.2912,3.279,3.278,3.2773,3.2679,3.2673,3.2618,3.2555,3.253,3.2441,3.242,3.2309,3.2274,3.2207,3.2184,3.2171,3.2133,3.2114,3.2139,3.2144,3.2118,3.211,3.2077,3.2076,3.2076,3.2075,0,3.3054,3.2973,3.2949,3.285,3.2825,3.2824,3.2737,3.2722,3.266,3.263,3.2617,3.2517,3.2471,3.2382,3.231,3.2264,3.2255,3.2225,3.228,3.2268,3.2298,3.2295,3.2414,3.2423,3.2279,3.228,3.2281,0,3.3119,3.3115,3.3016,3.2994,3.2953,3.2919,3.2888,3.2795,3.2765,3.2684,3.2679,3.2626,3.2579,3.2509,3.2428,3.2372,3.2338,3.2383,3.2328,3.2353,3.2334,3.2335,3.2332,3.2395,3.2397,3.2399,3.24,0,3.3243,3.3203,3.3163,3.3109,3.3074,3.3026,3.2973,3.296,3.2854,3.2825,3.2778,3.2741,3.2669,3.2616,3.2548,3.2498,3.243,3.2418,3.2421,3.2445,3.2475,3.2456,3.231,3.2415,3.2414,3.2413,3.2412,3.2411,3.3345,3.3336,3.3264,3.3222,3.3173,3.3125,3.3106,3.3041,3.3001,3.2936,3.2883,3.2839,3.2766,3.2668,3.2622,3.2585,3.2552,3.2557,3.2557,3.2559,3.2568,3.2484,3.2572,3.2572,3.2571,3.2571,3.257,0,3.3462,3.3411,3.3373,3.3303,3.3269,3.3211,3.3149,3.3124,3.3087,3.3026,3.2982,3.2926,3.2875,3.279,3.2731,3.2717,3.2684,3.2704,3.2702,3.2691,3.2602,3.2604,3.2731,3.2731,3.2731,3.2731,3.2731,3.2731,3.3518,3.3499,3.345,3.3404,3.3352,3.3311,3.328,3.3235,3.3185,3.3128,3.3085,3.3032,3.296,3.2894,3.2843,3.2819,3.28,3.283,3.2796,3.2713,3.2698,3.2683,3.2685,3.2827,3.2827,3.2887,3.2888,3.2889]}]]